Date String (YYYY-MM-DD hh:mm:ss) UTC,Instrument flags,absolute air pressure of the measurement (hPa),sample flow rate (lpm),inlet stack bypass flow (lpm),air temperature of the measurement (°C),ambient temperature measured by the external sensor (°C),aerosol sample conditioner tube jacket temperature (°C),OPC LED temperature (°C),internal box temperature (°C),relative humidity of the measurement (%),span deviation,mass concentration of particles derived from Lorenz-Mie calculation of OPC scattering (μg/m³),mass concentration of particles derived from Lorenz-Mie calculation of OPC scattering (μg/m³),mass concentration of particles derived from Lorenz-Mie calculation of OPC scattering (μg/m³)
DateTimeUTC,F1_M11,P_M11,Q1_M11,Q2_M11,T1_M11,T2_M11,T3_M11,T4_M11,T5_M11,U1_M11,ZSPAN_M11,X0_M11,X2_M11,X1_M11
2023-11-22 15:00:00,SystemResetWarning,0832.2,5.00,000.00,021.9,021.3,000.0,030.0,023.3,10.2,0000.0,0006.60,0000.68,0000.41
2023-11-22 15:01:00,SystemResetWarning,0832.2,5.00,000.00,021.9,021.3,000.0,030.0,023.3,10.1,0000.0,0006.56,0000.69,0000.40
2023-11-22 15:02:00,SystemResetWarning,0832.2,5.00,000.00,022.0,021.3,000.0,030.0,023.3,10.3,0000.0,0006.85,0000.78,0000.41
2023-11-22 15:03:00,SystemResetWarning,0832.2,5.00,000.00,022.0,021.3,000.0,030.1,023.3,10.3,0000.0,0007.08,0000.85,0000.41
2023-11-22 15:04:00,SystemResetWarning,0832.2,5.00,000.00,022.0,021.3,000.0,030.1,023.3,10.0,0000.0,0006.04,0000.89,0000.42
2023-11-22 15:05:00,SystemResetWarning,0832.2,5.01,000.00,022.0,021.4,000.0,030.1,023.4,9.9,0000.0,0005.83,0000.90,0000.42
2023-11-22 15:06:00,SystemResetWarning,0832.2,5.00,000.00,022.0,021.4,000.0,030.1,023.4,9.9,0000.0,0005.47,0000.95,0000.43
2023-11-22 15:07:00,SystemResetWarning,0832.2,4.99,000.00,022.0,021.4,000.0,030.1,023.4,9.9,0000.0,0005.42,0000.97,0000.43
2023-11-22 15:08:00,SystemResetWarning,0832.2,4.99,000.00,022.1,021.4,000.0,030.1,023.4,9.9,0000.0,0004.80,0000.96,0000.43
2023-11-22 15:09:00,SystemResetWarning,0832.2,5.00,000.00,022.1,021.4,000.0,030.2,023.5,10.0,0000.0,0004.78,0000.98,0000.44
2023-11-22 15:10:00,SystemResetWarning,0832.3,5.01,000.00,022.1,021.5,000.0,030.2,023.5,10.0,0000.0,0005.12,0000.97,0000.45
2023-11-22 15:11:00,SystemResetWarning,0832.2,5.01,000.00,022.1,021.5,000.0,030.2,023.5,10.2,0000.0,0004.58,0000.95,0000.45
2023-11-22 15:12:00,SystemResetWarning,0832.2,5.01,000.00,022.1,021.5,000.0,030.2,023.5,10.3,0000.0,0004.26,0000.96,0000.46
2023-11-22 15:13:00,SystemResetWarning,0832.3,5.00,000.00,022.1,021.5,000.0,030.2,023.5,10.3,0000.0,0004.18,0000.89,0000.45
2023-11-22 15:14:00,SystemResetWarning,0832.3,5.00,000.00,022.2,021.5,000.0,030.2,023.5,10.2,0000.0,0003.98,0000.83,0000.44
2023-11-22 15:15:00,SystemResetWarning,0832.3,4.99,000.00,022.2,021.5,000.0,030.3,023.6,10.2,0000.0,0003.93,0000.81,0000.44
2023-11-22 15:16:00,SystemResetWarning,0832.2,4.99,000.00,022.2,021.5,000.0,030.3,023.6,10.2,0000.0,0004.07,0000.85,0000.44
2023-11-22 15:17:00,SystemResetWarning,0832.2,5.00,000.00,022.2,021.6,000.0,030.3,023.6,10.4,0000.0,0003.04,0000.80,0000.44
2023-11-22 15:18:00,SystemResetWarning,0832.2,5.00,000.00,022.2,021.6,000.0,030.3,023.6,10.5,0000.0,0002.89,0000.79,0000.44
2023-11-22 15:19:00,SystemResetWarning,0832.2,5.01,000.00,022.2,021.6,000.0,030.3,023.6,10.4,0000.0,0002.93,0000.78,0000.44
2023-11-22 15:20:00,SystemResetWarning,0832.2,5.01,000.00,022.3,021.6,000.0,030.3,023.6,10.4,0000.0,0003.62,0000.79,0000.44
2023-11-22 15:21:00,SystemResetWarning,0832.1,5.00,000.00,022.3,021.6,000.0,030.4,023.6,10.4,0000.0,0003.12,0000.81,0000.44
2023-11-22 15:22:00,SystemResetWarning,0832.2,4.99,000.00,022.3,021.6,000.0,030.4,023.7,10.2,0000.0,0002.69,0000.78,0000.44
2023-11-22 15:23:00,SystemResetWarning,0832.2,4.99,000.00,022.3,021.6,000.0,030.4,023.7,10.3,0000.0,0002.59,0000.77,0000.44
2023-11-22 15:24:00,SystemResetWarning,0832.2,5.00,000.00,022.3,021.7,000.0,030.4,023.7,10.4,0000.0,0003.16,0000.81,0000.46
2023-11-22 15:25:00,SystemResetWarning,0832.2,5.00,000.00,022.3,021.7,000.0,030.4,023.7,10.3,0000.0,0003.80,0000.85,0000.47
2023-11-22 15:26:00,SystemResetWarning,0832.2,5.01,000.00,022.3,021.7,000.0,030.4,023.7,10.2,0000.0,0004.22,0000.88,0000.47
2023-11-22 15:27:00,SystemResetWarning,0832.2,5.00,000.00,022.4,021.7,000.0,030.5,023.7,10.1,0000.0,0004.02,0000.85,0000.47
2023-11-22 15:28:00,SystemResetWarning,0832.2,4.99,000.00,022.4,021.7,000.0,030.5,023.8,10.1,0000.0,0004.23,0000.87,0000.47
2023-11-22 15:29:00,SystemResetWarning,0832.2,4.99,000.00,022.4,021.7,000.0,030.5,023.8,10.2,0000.0,0004.71,0000.90,0000.47
2023-11-22 15:30:00,SystemResetWarning,0832.2,4.99,000.00,022.4,021.8,000.0,030.5,023.8,10.3,0000.0,0005.03,0000.93,0000.48
2023-11-22 15:31:00,SystemResetWarning,0832.2,5.00,000.00,022.4,021.8,000.0,030.5,023.8,10.3,0000.0,0005.10,0000.93,0000.48
2023-11-22 15:32:00,SystemResetWarning,0832.2,5.01,000.00,022.4,021.8,000.0,030.5,023.8,10.3,0000.0,0005.09,0000.94,0000.47
2023-11-22 15:33:00,SystemResetWarning,0832.2,5.00,000.00,022.5,021.8,000.0,030.5,023.8,10.3,0000.0,0005.12,0000.96,0000.48
2023-11-22 15:34:00,SystemResetWarning,0832.2,5.00,000.00,022.5,021.8,000.0,030.6,023.9,10.3,0000.0,0005.22,0000.97,0000.48
2023-11-22 15:35:00,SystemResetWarning,0832.2,5.00,000.00,022.5,021.8,000.0,030.6,023.9,10.3,0000.0,0004.57,0000.94,0000.48
2023-11-22 15:36:00,SystemResetWarning,0832.2,5.00,000.00,022.5,021.8,000.0,030.6,023.9,10.1,0000.0,0003.99,0000.96,0000.48
2023-11-22 15:37:00,SystemResetWarning,0832.2,5.00,000.00,022.5,021.9,000.0,030.6,023.9,10.2,0000.0,0004.03,0000.93,0000.48
2023-11-22 15:38:00,SystemResetWarning,0832.2,4.99,000.00,022.6,021.9,000.0,030.6,023.9,10.3,0000.0,0004.66,0000.93,0000.48
2023-11-22 15:39:00,SystemResetWarning,0832.2,4.99,000.00,022.6,021.9,000.0,030.6,024.0,10.1,0000.0,0004.40,0000.90,0000.49
2023-11-22 15:40:00,SystemResetWarning,0832.2,4.99,000.00,022.6,021.9,000.0,030.7,024.0,10.0,0000.0,0004.16,0000.87,0000.50
2023-11-22 15:41:00,SystemResetWarning,0832.2,5.00,000.00,022.6,022.0,000.0,030.7,024.0,10.0,0000.0,0004.54,0000.84,0000.51
2023-11-22 15:42:00,SystemResetWarning,0832.2,5.00,000.00,022.6,022.0,000.0,030.7,024.0,10.0,0000.0,0003.87,0000.82,0000.52
2023-11-22 15:43:00,SystemResetWarning,0832.2,5.00,000.00,022.6,022.0,000.0,030.7,024.0,10.0,0000.0,0003.79,0000.80,0000.53
2023-11-22 15:44:00,SystemResetWarning,0832.2,5.01,000.00,022.7,022.0,000.0,030.7,024.1,10.0,0000.0,0003.75,0000.79,0000.53
2023-11-22 15:45:00,SystemResetWarning,0832.2,5.00,000.00,022.7,022.0,000.0,030.7,024.1,10.0,0000.0,0003.61,0000.79,0000.54
2023-11-22 15:46:00,SystemResetWarning,0832.2,5.01,000.00,022.7,022.1,000.0,030.8,024.1,10.0,0000.0,0003.56,0000.79,0000.54
2023-11-22 15:47:00,SystemResetWarning,0832.2,5.00,000.00,022.7,022.1,000.0,030.8,024.1,10.0,0000.0,0003.40,0000.72,0000.54
2023-11-22 15:48:00,SystemResetWarning,0832.2,4.99,000.00,022.8,022.1,000.0,030.8,024.2,10.0,0000.0,0003.12,0000.74,0000.55
2023-11-22 15:49:00,SystemResetWarning,0832.2,5.00,000.00,022.8,022.1,000.0,030.8,024.2,9.8,0000.0,0002.57,0000.76,0000.55
2023-11-22 15:50:00,SystemResetWarning,0832.2,5.00,000.00,022.8,022.2,000.0,030.8,024.2,9.9,0000.0,0002.59,0000.78,0000.56
2023-11-22 15:51:00,SystemResetWarning,0832.2,5.00,000.00,022.8,022.2,000.0,030.9,024.2,9.9,0000.0,0002.36,0000.79,0000.56
2023-11-22 15:52:00,SystemResetWarning,0832.2,4.99,000.00,022.8,022.2,000.0,030.9,024.2,9.9,0000.0,0001.41,0000.80,0000.56
2023-11-22 15:53:00,SystemResetWarning,0832.1,4.99,000.00,022.8,022.2,000.0,030.9,024.2,9.9,0000.0,0001.39,0000.80,0000.56
2023-11-22 15:54:00,SystemResetWarning,0832.2,5.00,000.00,022.9,022.2,000.0,030.9,024.3,9.9,0000.0,0001.40,0000.80,0000.55
2023-11-22 15:55:00,SystemResetWarning,0832.2,5.00,000.00,022.9,022.2,000.0,030.9,024.3,9.8,0000.0,0001.50,0000.84,0000.54
2023-11-22 15:56:00,SystemResetWarning,0832.2,5.00,000.00,022.9,022.3,000.0,030.9,024.3,9.8,0000.0,0002.18,0000.86,0000.54
2023-11-22 15:57:00,SystemResetWarning,0832.1,5.01,000.00,022.9,022.3,000.0,031.0,024.3,9.8,0000.0,0002.43,0000.85,0000.54
2023-11-22 15:58:00,SystemResetWarning,0832.2,5.00,000.00,022.9,022.3,000.0,031.0,024.3,9.7,0000.0,0002.57,0000.87,0000.54
2023-11-22 15:59:00,SystemResetWarning,0832.1,5.00,000.00,023.0,022.3,000.0,031.0,024.4,9.9,0000.0,0002.50,0000.87,0000.55
